| time (UTC) | temp C | wind direction | speed KPH | gust KPH | rain 1hr cm | rain 24hr cm | rain mn cm | humidity % | barometer mb |
| 20260502162557 | 27 | 0.0 | 0.0 | 0.00 | 0.00 | 0.00 | 25 | 1014.2 | |
| 20260502161506 | 28 | 0.0 | 0.0 | 0.00 | 0.00 | 0.00 | 25 | 1014.3 | |
| 20260502160416 | 31 | 0.0 | 0.0 | 0.00 | 0.00 | 0.00 | 24 | 1014.3 | |
| 20260502152047 | 31 | 0.0 | 0.0 | 0.00 | 0.00 | 0.00 | 25 | 1014.7 | |
| 20260502150955 | 31 | 0.0 | 0.0 | 0.00 | 0.00 | 0.00 | 25 | 1014.7 | |
| 20260502123745 | 28 | 0.0 | 0.0 | 0.00 | 0.00 | 0.00 | 33 | 1016.6 | |
| 20260502122652 | 27 | 0.0 | 0.0 | 0.00 | 0.00 | 0.00 | 33 | 1016.7 | |
| 20260502121559 | 26 | 0.0 | 0.0 | 0.00 | 0.00 | 0.00 | 34 | 1016.9 | |
| 20260502120506 | 25 | 0.0 | 0.0 | 0.00 | 0.00 | 0.00 | 35 | 1016.9 | |
| 20260502115414 | 24 | 0.0 | 0.0 | 0.00 | 0.00 | 0.00 | 37 | 1017.1 | |
| 20260502114321 | 23 | 0.0 | 0.0 | 0.00 | 0.00 | 0.00 | 38 | 1017.3 | |
| 20260502113228 | 22 | 0.0 | 0.0 | 0.00 | 0.00 | 0.00 | 39 | 1017.5 | |
| 20260502111043 | 21 | 0.0 | 0.0 | 0.00 | 0.00 | 0.00 | 40 | 1017.9 | |
| 20260502105951 | 21 | 0.0 | 0.0 | 0.00 | 0.00 | 0.00 | 40 | 1018.1 | |
| 20260502104858 | 21 | 0.0 | 0.0 | 0.00 | 0.00 | 0.00 | 40 | 1018.3 | |
| 20260502103805 | 20 | 0.0 | 0.0 | 0.00 | 0.00 | 0.00 | 41 | 1018.4 | |
| 20260502101620 | 18 | 0.0 | 0.0 | 0.00 | 0.00 | 0.00 | 42 | 1018.9 | |
| 20260502100528 | 17 | 0.0 | 0.0 | 0.00 | 0.00 | 0.00 | 43 | 1019.0 | |
| 20260502091104 | 13 | 0.0 | 0.0 | 0.00 | 0.00 | 0.00 | 46 | 1019.7 | |
| 20260502071127 | 9 | 0.0 | 0.0 | 0.00 | 0.00 | 0.00 | 49 | 1020.8 | |
| 20260502070034 | 8 | 0.0 | 0.0 | 0.00 | 0.00 | 0.00 | 49 | 1020.8 | |
| 20260502064942 | 8 | 0.0 | 0.0 | 0.00 | 0.00 | 0.00 | 49 | 1020.7 | |
| 20260502063849 | 8 | 0.0 | 0.0 | 0.00 | 0.00 | 0.00 | 49 | 1020.8 | |
| 20260502062757 | 7 | 0.0 | 0.0 | 0.00 | 0.00 | 0.00 | 49 | 1020.9 | |
| 20260502061704 | 7 | 0.0 | 0.0 | 0.00 | 0.00 | 0.00 | 49 | 1021.1 | |
| 20260502060611 | 7 | 0.0 | 0.0 | 0.00 | 0.00 | 0.00 | 49 | 1021.2 | |
| 20260502055518 | 6 | 0.0 | 0.0 | 0.00 | 0.00 | 0.00 | 49 | 1021.2 | |
| 20260502054426 | 6 | 0.0 | 0.0 | 0.00 | 0.00 | 0.00 | 49 | 1021.2 | |
| 20260502053333 | 6 | 0.0 | 0.0 | 0.00 | 0.00 | 0.00 | 49 | 1021.2 | |
| 20260502052241 | 5 | 0.0 | 0.0 | 0.00 | 0.00 | 0.00 | 49 | 1021.3 | |
| 20260502051149 | 5 | 0.0 | 0.0 | 0.00 | 0.00 | 0.00 | 49 | 1021.3 | |
| 20260502050056 | 5 | 0.0 | 0.0 | 0.00 | 0.00 | 0.00 | 49 | 1021.3 | |
| 20260502045003 | 5 | 0.0 | 0.0 | 0.00 | 0.00 | 0.00 | 49 | 1021.2 | |
| 20260502043911 | 5 | 0.0 | 0.0 | 0.00 | 0.00 | 0.00 | 49 | 1021.1 | |
| 20260502042818 | 5 | 0.0 | 0.0 | 0.00 | 0.00 | 0.00 | 49 | 1021.2 | |
| 20260502041726 | 5 | 0.0 | 0.0 | 0.00 | 0.00 | 0.00 | 49 | 1021.1 | |
| 20260502040634 | 5 | 0.0 | 0.0 | 0.00 | 0.00 | 0.00 | 48 | 1021.0 | |
| 20260502035541 | 5 | 0.0 | 0.0 | 0.00 | 0.00 | 0.00 | 48 | 1020.9 | |
| 20260502034449 | 5 | 0.0 | 0.0 | 0.00 | 0.00 | 0.00 | 48 | 1020.8 | |
| 20260502033357 | 5 | 0.0 | 0.0 | 0.00 | 0.00 | 0.00 | 48 | 1020.8 | |
| 20260502032306 | 5 | 0.0 | 0.0 | 0.00 | 0.00 | 0.00 | 48 | 1020.8 | |
| 20260502031213 | 5 | 0.0 | 0.0 | 0.00 | 0.00 | 0.00 | 48 | 1020.8 | |
| 20260502030120 | 5 | 0.0 | 0.0 | 0.00 | 0.00 | 0.00 | 48 | 1020.8 | |
| 20260502025028 | 5 | 0.0 | 0.0 | 0.00 | 0.00 | 0.00 | 47 | 1021.0 | |
| 20260502022843 | 5 | 0.0 | 0.0 | 0.00 | 0.00 | 0.00 | 47 | 1020.9 | |
| 20260502021750 | 5 | 0.0 | 0.0 | 0.00 | 0.00 | 0.00 | 47 | 1021.0 | |
| 20260502020658 | 5 | 0.0 | 0.0 | 0.00 | 0.00 | 0.00 | 46 | 1020.9 | |
| 20260502015606 | 5 | 0.0 | 0.0 | 0.00 | 0.00 | 0.00 | 46 | 1020.8 | |
| 20260502014513 | 5 | 0.0 | 0.0 | 0.00 | 0.00 | 0.00 | 46 | 1020.9 | |
| 20260502013421 | 5 | 0.0 | 0.0 | 0.00 | 0.00 | 0.00 | 46 | 1021.0 | |
| 20260502012329 | 5 | 0.0 | 0.0 | 0.00 | 0.00 | 0.00 | 46 | 1021.0 | |
| 20260502011236 | 5 | 0.0 | 0.0 | 0.00 | 0.00 | 0.00 | 45 | 1021.1 | |
| 20260502010144 | 6 | 0.0 | 0.0 | 0.00 | 0.00 | 0.00 | 45 | 1021.1 | |
| 20260502005052 | 6 | 0.0 | 0.0 | 0.00 | 0.00 | 0.00 | 45 | 1021.2 | |
| 20260502004000 | 6 | 0.0 | 0.0 | 0.00 | 0.00 | 0.00 | 45 | 1021.1 | |
| 20260502002907 | 6 | 0.0 | 0.0 | 0.00 | 0.00 | 0.00 | 44 | 1021.2 | |
| 20260502001815 | 6 | 0.0 | 0.0 | 0.00 | 0.00 | 0.00 | 44 | 1021.2 | |
| 20260502000723 | 6 | 0.0 | 0.0 | 0.00 | 0.00 | 0.00 | 44 | 1021.1 | |
| 20260501235631 | 6 | 0.0 | 0.0 | 0.00 | 0.00 | 0.00 | 44 | 1021.1 | |
| 20260501234539 | 6 | 0.0 | 0.0 | 0.00 | 0.00 | 0.00 | 43 | 1021.2 | |
| 20260501233447 | 6 | 0.0 | 0.0 | 0.00 | 0.00 | 0.00 | 43 | 1021.1 | |
| 20260501232354 | 6 | 0.0 | 0.0 | 0.00 | 0.00 | 0.00 | 43 | 1021.2 | |
| 20260501231302 | 6 | 0.0 | 0.0 | 0.00 | 0.00 | 0.00 | 43 | 1021.1 | |
| 20260501230210 | 6 | 0.0 | 0.0 | 0.00 | 0.00 | 0.00 | 43 | 1021.2 | |
| 20260501225118 | 7 | 0.0 | 0.0 | 0.00 | 0.00 | 0.00 | 42 | 1021.1 | |
| 20260501224026 | 7 | 0.0 | 0.0 | 0.00 | 0.00 | 0.00 | 42 | 1021.1 | |
| 20260501222934 | 7 | 0.0 | 0.0 | 0.00 | 0.00 | 0.00 | 42 | 1021.0 | |
| 20260501221841 | 7 | 0.0 | 0.0 | 0.00 | 0.00 | 0.00 | 41 | 1020.9 | |
| 20260501220749 | 7 | 0.0 | 0.0 | 0.00 | 0.00 | 0.00 | 41 | 1020.8 | |
| 20260501215657 | 7 | 0.0 | 0.0 | 0.00 | 0.00 | 0.00 | 41 | 1020.8 | |
| 20260501214604 | 7 | 0.0 | 0.0 | 0.00 | 0.00 | 0.00 | 41 | 1020.7 | |
| 20260501213512 | 8 | 0.0 | 0.0 | 0.00 | 0.00 | 0.00 | 40 | 1020.5 | |
| 20260501212420 | 8 | 0.0 | 0.0 | 0.00 | 0.00 | 0.00 | 40 | 1020.4 | |
| 20260501211327 | 8 | 0.0 | 0.0 | 0.00 | 0.00 | 0.00 | 40 | 1020.5 | |
| 20260501210235 | 8 | 0.0 | 0.0 | 0.00 | 0.00 | 0.00 | 39 | 1020.3 | |
| 20260501205143 | 8 | 0.0 | 0.0 | 0.00 | 0.00 | 0.00 | 39 | 1020.3 | |
| 20260501204051 | 9 | 0.0 | 0.0 | 0.00 | 0.00 | 0.00 | 39 | 1020.2 | |
| 20260501202958 | 9 | 0.0 | 0.0 | 0.00 | 0.00 | 0.00 | 38 | 1020.1 | |
| 20260501201906 | 9 | 0.0 | 0.0 | 0.00 | 0.00 | 0.00 | 38 | 1020.1 | |
| 20260501200814 | 10 | 0.0 | 0.0 | 0.00 | 0.00 | 0.00 | 37 | 1019.9 | |
| 20260501195722 | 10 | 0.0 | 0.0 | 0.00 | 0.00 | 0.00 | 37 | 1019.8 | |
| 20260501194630 | 10 | 0.0 | 0.0 | 0.00 | 0.00 | 0.00 | 37 | 1019.8 | |
| 20260501193539 | 11 | 0.0 | 0.0 | 0.00 | 0.00 | 0.00 | 36 | 1019.5 | |
| 20260501192447 | 11 | 0.0 | 0.0 | 0.00 | 0.00 | 0.00 | 36 | 1019.3 | |
| 20260501190303 | 12 | 0.0 | 0.0 | 0.00 | 0.00 | 0.00 | 35 | 1019.1 | |
| 20260501185212 | 12 | 0.0 | 0.0 | 0.00 | 0.00 | 0.00 | 34 | 1018.9 | |
| 20260501184121 | 13 | 0.0 | 0.0 | 0.00 | 0.00 | 0.00 | 33 | 1018.6 | |
| 20260501183029 | 15 | 0.0 | 0.0 | 0.00 | 0.00 | 0.00 | 33 | 1018.5 | |
| 20260501181937 | 16 | 0.0 | 0.0 | 0.00 | 0.00 | 0.00 | 32 | 1018.2 | |
| 20260501180846 | 17 | 0.0 | 0.0 | 0.00 | 0.00 | 0.00 | 31 | 1018.0 | |
| 20260501175756 | 21 | 0.0 | 0.0 | 0.00 | 0.00 | 0.00 | 29 | 1017.8 | |
| 20260501174705 | 22 | 0.0 | 0.0 | 0.00 | 0.00 | 0.00 | 29 | 1017.6 | |
| 20260501173614 | 23 | 0.0 | 0.0 | 0.00 | 0.00 | 0.00 | 28 | 1017.5 | |
| 20260501172522 | 25 | 0.0 | 0.0 | 0.00 | 0.00 | 0.00 | 27 | 1017.3 | |
| 20260501171431 | 26 | 0.0 | 0.0 | 0.00 | 0.00 | 0.00 | 27 | 1017.3 | |
| 20260501165249 | 27 | 0.0 | 0.0 | 0.00 | 0.00 | 0.00 | 26 | 1017.1 | |
| 20260501164157 | 27 | 0.0 | 0.0 | 0.00 | 0.00 | 0.00 | 26 | 1017.1 |